CST,Max TemperatureF,Mean TemperatureF,Min TemperatureF,Max Dew PointF,MeanDew PointF,Min DewpointF,Max Humidity, Mean Humidity, Min Humidity, Max Sea Level PressureIn, Mean Sea Level PressureIn, Min Sea Level PressureIn, Max VisibilityMiles, Mean VisibilityMiles, Min VisibilityMiles, Max Wind SpeedMPH, Mean Wind SpeedMPH, Max Gust SpeedMPH,PrecipitationIn, CloudCover, Events, WindDirDegrees
2014-2-1,17,6,-6,10,3,-11,87,77,67,30.22,30.00,29.87,10,9,0,17,8,24,0.00,2,Snow,247
2014-2-2,12,-2,-17,5,-7,-22,87,81,71,30.27,30.22,30.14,10,10,10,10,3,,0.00,0,,190
2014-2-3,14,2,-9,6,-2,-14,88,81,64,30.35,30.22,30.14,10,10,10,8,3,,0.00,1,,282
2014-2-4,5,2,-2,-1,-7,-10,85,69,54,30.48,30.43,30.35,10,10,10,17,6,21,0.00,1,,332
2014-2-5,3,-2,-9,-4,-9,-14,81,71,63,30.54,30.51,30.48,10,8,0,17,13,22,0.00,4,Snow,308
2014-2-6,4,-5,-14,-3,-11,-19,82,76,67,30.48,30.34,30.20,10,9,0,22,10,26,0.00,1,Snow,259
2014-2-7,12,2,-8,1,-7,-14,86,72,57,30.20,30.14,30.11,10,10,10,15,8,21,0.00,0,,223
2014-2-8,13,1,-11,8,-1,-15,90,84,79,30.18,30.10,30.06,10,8,3,10,3,,0.00,5,Snow,221
2014-2-9,4,-4,-11,-4,-10,-17,83,74,65,30.41,30.30,30.19,10,10,2,17,10,22,0.00,0,Snow,292
2014-2-10,2,-8,-17,-6,-14,-22,83,76,66,30.48,30.44,30.41,10,10,10,9,6,,0.00,0,,283
2014-2-11,15,-2,-20,10,-6,-26,85,77,69,30.44,30.21,30.00,10,10,10,16,5,22,0.00,3,,156
2014-2-12,20,18,15,17,13,9,94,87,74,30.09,29.99,29.72,10,6,1,14,6,18,0.00,7,Snow,203
2014-2-13,32,17,2,28,11,-2,92,83,75,29.76,29.60,29.41,10,6,0,34,15,40,0.00,5,Snow,263
2014-2-14,12,4,-4,4,-1,-8,85,77,67,30.03,29.93,29.75,10,10,10,15,10,18,0.00,1,,302
2014-2-15,20,8,-4,16,8,-8,89,84,78,30.06,29.88,29.72,10,9,0,16,6,21,0.00,6,Snow,148
2014-2-16,21,10,0,17,8,-4,91,81,69,30.22,30.08,29.88,10,8,0,24,9,32,0.00,5,Snow,103
2014-2-17,32,22,12,26,21,11,97,88,77,29.87,29.73,29.65,10,6,0,30,16,37,0.01,5,Snow,199
2014-2-18,37,26,16,31,24,14,96,81,67,29.79,29.63,29.53,10,10,10,15,5,17,0.05,1,,252
2014-2-19,37,24,10,33,25,8,99,89,79,29.82,29.74,29.62,10,8,0,17,6,22,0.00,1,Fog,167
2014-2-20,36,24,13,33,26,10,99,93,76,29.62,29.50,29.36,10,4,0,30,9,43,0.20,6,Snow,309
2014-2-21,16,10,3,11,6,-1,88,80,74,29.80,29.59,29.40,10,5,1,29,23,36,0.00,1,Snow,282
2014-2-22,14,6,-1,7,1,-5,86,78,70,30.15,29.99,29.81,10,10,10,20,12,22,0.00,0,,276
2014-2-23,16,5,-6,8,0,-9,87,77,68,30.29,30.23,30.16,10,10,10,22,11,28,0.00,0,,280
2014-2-24,8,0,-8,4,-4,-13,85,77,67,30.35,30.32,30.29,10,9,2,13,9,18,0.00,3,Snow,283
2014-2-25,5,-5,-15,-4,-11,-20,83,73,63,30.37,30.32,30.28,10,9,1,21,11,30,0.00,0,,287
2014-2-26,20,2,-16,11,-5,-21,82,71,57,30.35,29.93,29.65,10,8,2,31,13,44,0.00,3,Snow,265
2014-2-27,-4,-11,-18,-14,-22,-28,68,58,43,30.19,30.10,29.97,10,10,10,18,9,28,0.00,0,,289
2014-2-28,17,2,-13,11,-4,-20,82,71,67,30.19,29.94,29.85,10,10,3,21,9,23,0.00,5,Snow,181